Reflectivity
-11 -8 25 12 28 17 32 22 14 -4 -13 -17 -20 -20 -20 -20 33 31 11 37 35 28 -20 -20 -20 -20 -20 -20 -20 -20 -20 -20 -20 -20 -20 -20 -20 -20 2 -20 -20 -20 -20
-20 -17 33 32 6 28 28 30 26 14 2 19 -8 -20 -20 -20 -20 -6 -20 18 -13 -20 -14 -20 -18 -9 -20 -20 -20 -20 -20 -20 -20 -20 -20 -20 -20 -20 1 -20 -20 -20 -20
-20 -20 -1 11 26 24 26 15 28 26 16 30 27 -8 -20 -20 -15 26 -20 -3 35 -18 -16 -20 -20 -13 7 2 -20 -20 -20 -20 -20 -20 -20 -20 -20 -20 -20 -20 -20 -20 -20
-20 -20 -20 -19 1 32 25 47 40 37 22 27 16 -4 13 -4 2 22 11 -15 16 -1 17 -20 -20 -20 -4 7 3 -20 -20 -20 -20 -20 -20 -20 -18 -2 -20 -20 -20 -20 -20
-20 -20 -20 -20 -20 -11 16 27 36 27 34 28 22 11 19 21 10 -20 -20 -20 6 4 38 -20 -20 -20 -20 5 -2 -1 -20 -20 -20 -20 -20 -20 5 5 -19 -20 -20 -20 -20
-20 -20 -20 -20 -20 -8 -10 31 21 21 22 31 26 30 26 13 30 27 14 -20 -20 3 18 20 -20 -20 -2 15 3 -10 1 -20 -20 -20 -20 -20 -10 10 0 -20 -20 -20 -20
-20 -17 -15 -20 -20 -18 6 1 20 14 -4 15 32 14 27 19 9 31 31 -20 12 4 -20 25 -20 -20 -6 16 9 8 5 3 -20 -20 -20 -20 -20 -20 -17 -5 -20 -20 -20
-20 -10 -20 -20 -13 -0 0 0 28 25 31 30 25 30 31 19 11 40 32 22 -13 -15 -20 -15 -20 -20 -20 -6 -0 7 1 18 5 -20 -20 -9 -20 -14 -0 -2 -16 -1 -20
-20 -20 -14 -14 -9 -6 3 6 -1 23 31 26 32 29 34 31 13 28 35 27 -3 -2 2 -12 -20 -20 -20 -20 -1 0 7 -16 10 -10 -20 -20 -20 -3 -18 10 -13 -15 -11
5 -10 -6 -0 2 1 -11 0 -16 -1 14 12 27 27 27 29 38 25 42 23 4 -1 30 30 23 -20 -20 -20 2 9 9 7 5 1 -20 -20 -20 -15 -20 -18 -20 -20 -20
-16 -4 -20 -10 -0 -1 -3 -12 7 -17 4 9 29 28 24 22 32 33 34 11 9 8 7 24 11 -14 -20 -20 -20 1 -11 8 3 4 -16 -20 -20 -20 -20 -20 -20 -15 -20
-20 -9 -20 -18 -5 -2 -3 -20 -1 6 -3 5 17 10 24 33 25 34 31 32 29 15 10 1 17 11 33 -3 -20 -20 -20 -20 -20 -12 -20 -20 -20 -20 -20 -20 -20 -20 -20
-20 6 -6 -20 -7 6 -9 -14 -20 3 4 5 19 3 2 10 6 25 25 27 44 8 13 15 8 11 2 -18 -20 -20 -20 -20 -20 -20 -20 -20 -20 -20 -20 -20 -20 -20 -20
-20 -19 3 -20 3 -0 -5 -20 -20 -16 2 4 2 13 20 14 26 28 30 30 45 29 10 18 -4 8 -20 -20 -20 -20 -20 -20 -20 -20 -20 -20 -20 -20 -20 -20 -20 -20 -20
-4 -20 -19 6 7 9 1 -20 -20 -20 2 -1 5 3 11 5 28 27 16 31 39 38 10 -3 -20 -20 -20 -20 -20 -20 -20 -20 -20 -20 -20 -20 -20 -20 -20 -20 -20 -20 -20
6 -20 10 -20 -14 9 9 -20 -20 -20 1 -6 5 -0 2 23 8 18 19 21 32 35 17 -16 -20 -20 -20 -20 -20 -20 -20 -20 -20 -20 -20 -20 -20 -20 -20 -20 -20 -20 -20
-20 9 12 11 -20 -8 -3 -20 -20 -20 -1 4 3 -1 -7 -3 3 20 18 22 34 40 16 21 -15 -20 -20 -20 -20 -20 -20 -20 -20 -20 -20 -20 -20 -20 -20 -20 -20 -20 -20
-20 -20 7 14 -20 -20 -13 -20 -20 -20 -6 3 7 3 0 -7 2 1 -11 24 32 39 43 11 -9 17 -17 -20 -20 -20 -20 -20 -20 -20 -20 -20 -20 -20 -20 -20 -20 -20 -20
-20 -20 -15 8 -15 -13 -20 -20 -20 -17 -15 10 8 8 3 3 -8 20 25 29 22 30 31 37 20 -1 19 20 8 -17 -20 -20 -20 -20 -20 -20 -20 -20 -20 -20 -20 -20 -20
-20 -20 10 11 -9 -5 -16 -20 -20 -14 -16 5 9 8 6 7 8 16 -11 17 23 27 30 26 34 21 17 20 21 11 6 -20 -20 -20 -20 -20 -20 -20 -20 -20 -20 -20 -20
-20 -20 -17 10 -16 17 -20 -20 -20 -20 -1 -13 -3 7 8 15 20 18 21 15 21 26 33 36 14 20 21 24 16 22 -7 -20 -20 -20 -20 -20 -20 -20 -20 -20 -20 -20 -20
-20 -20 -6 7 -20 13 -20 -20 -20 -20 -2 -20 -4 3 4 11 7 2 25 27 32 18 25 27 23 21 22 -20 -20 0 17 -19 3 -20 -20 -20 -20 -20 -20 -20 -20 -20 -20
-20 -20 -20 -15 -19 2 -4 0 -20 -20 -20 3 3 -18 -0 1 10 -9 -8 13 32 30 21 19 30 21 12 1 10 16 13 5 -6 -20 -20 -20 -20 -20 -20 -20 -20 -20 -20
-8 -20 -20 -8 -5 1 -13 -4 -3 -20 -20 -15 -15 -11 -11 -20 3 0 -6 8 -11 12 18 15 35 27 31 16 19 -17 -16 41 31 12 9 -4 -20 -20 -20 -20 -20 -20 -20
-20 -20 -20 -19 -12 -20 -20 -7 -16 -19 -17 -3 5 -9 -16 -20 3 -6 -5 -10 -15 1 14 6 6 23 26 30 11 19 15 -0 11 6 2 12 -20 -20 -2 -20 -20 -20 -20
-3 -20 -20 -20 -20 2 -20 -3 -1 -10 -20 -20 5 10 19 9 -6 -14 -12 -1 -13 16 1 -14 -13 -2 8 24 33 29 25 22 30 -6 17 26 13 3 13 3 -14 -20 -20
Wind_Speed
11 12 9 9 9 10 10 9 7 7 7 8 7 7 7 7 8 7 7 12 17 20 24 24 24 22 21 19 18 17 17 17 17 16 15 14 14 15 15 16 16 15 14
10 10 8 11 9 9 10 11 5 6 7 7 8 7 8 7 8 7 8 13 13 20 21 23 23 23 22 20 18 17 18 17 16 16 15 14 14 13 15 17 14 14 14
13 12 10 10 11 11 14 11 6 1 2 4 7 8 6 8 5 9 6 8 11 18 18 20 22 22 23 23 19 18 18 17 16 16 16 15 15 14 14 15 15 14 13
16 12 10 10 12 11 9 10 13 2 2 1 3 4 7 6 7 8 7 6 5 9 13 18 20 21 20 21 22 21 20 18 17 16 16 15 16 16 16 15 14 14 13
14 13 10 10 12 11 12 12 9 11 4 3 3 3 4 6 8 6 10 9 10 9 10 16 17 20 20 20 21 23 23 21 19 18 17 17 17 17 17 16 15 15 14
15 14 11 12 12 10 10 12 13 11 9 3 3 6 3 5 4 7 11 9 9 10 11 14 13 12 19 20 21 22 24 24 23 20 19 18 17 18 18 18 16 16 15
15 14 12 13 12 11 12 12 11 12 10 5 3 4 6 5 8 4 7 9 10 11 11 11 10 9 11 20 21 22 23 25 24 22 20 19 19 18 18 18 18 15 15
15 12 12 14 13 11 11 12 13 10 6 9 5 2 4 5 5 12 10 10 12 10 12 13 14 13 12 11 15 23 23 23 24 22 21 20 19 17 18 17 18 17 15
14 15 14 12 12 11 11 11 11 12 9 10 12 3 4 7 4 4 9 5 10 11 13 15 16 15 15 13 13 16 20 18 22 23 22 20 19 18 16 16 16 18 17
14 14 14 13 10 9 11 11 9 10 8 10 10 4 8 1 6 3 4 5 4 9 11 12 14 16 15 14 17 17 18 19 18 22 22 22 20 19 18 17 18 19 18
13 11 15 13 11 8 10 12 11 9 8 7 7 8 9 6 12 8 4 8 3 6 8 11 13 13 16 15 14 15 18 19 18 20 22 23 23 20 18 18 19 19 17
10 12 13 13 10 9 10 10 12 10 10 9 8 7 8 7 6 9 10 9 15 13 10 10 12 12 13 14 17 21 21 21 20 19 20 22 23 20 22 20 19 21 22
10 9 11 12 9 10 10 10 11 12 10 9 10 8 8 9 10 5 5 7 12 6 7 8 10 11 11 12 14 21 23 24 24 22 21 22 22 21 21 23 22 21 23
8 11 10 11 10 11 10 12 9 10 11 9 11 8 8 9 8 8 8 9 10 11 6 8 11 12 12 12 14 23 16 26 25 24 23 23 22 20 19 21 22 22 23
9 11 11 12 12 11 11 12 10 13 11 11 9 9 8 8 9 11 7 7 5 12 13 8 5 14 13 12 13 14 19 22 26 26 25 24 23 22 22 20 20 20 20
10 12 12 11 12 11 10 12 12 13 13 9 8 10 9 8 10 9 8 5 3 5 7 6 12 9 15 13 13 14 19 21 28 26 26 25 24 24 23 23 21 21 21
11 12 12 12 11 11 9 12 14 15 14 13 12 12 11 10 7 9 10 9 8 2 3 3 2 6 13 14 14 11 13 14 14 27 28 27 25 24 23 23 22 22 22
10 11 12 10 11 12 10 12 14 15 14 14 13 13 13 10 10 11 12 12 9 6 6 7 2 2 6 15 17 14 12 12 12 22 26 27 27 26 24 22 22 22 21
11 11 12 10 10 11 12 13 12 14 13 12 13 13 13 12 10 8 10 12 8 6 6 5 4 2 3 4 13 10 11 12 11 17 25 24 25 25 25 25 24 23 22
11 12 12 10 10 9 12 14 14 14 13 12 12 12 12 12 11 13 11 12 9 11 9 9 10 6 4 4 4 10 7 7 10 9 15 19 23 25 25 23 23 25 24
10 10 11 10 11 6 10 16 15 13 13 13 12 11 10 14 17 12 8 10 11 7 9 10 8 6 8 5 5 4 8 9 9 7 8 9 9 10 12 14 20 22 23
11 10 9 10 11 6 21 23 21 12 13 12 12 12 12 15 14 16 15 13 10 8 10 9 9 8 8 4 3 4 6 4 6 4 9 9 11 13 13 12 22 23 24
11 11 10 11 11 11 22 24 25 11 12 11 12 11 12 11 15 16 16 14 8 13 15 6 12 11 8 7 6 9 5 11 11 6 9 9 8 11 10 12 20 24 24
11 11 12 13 10 11 23 25 24 13 12 12 11 11 12 13 15 19 15 13 11 8 9 5 7 5 3 5 7 7 6 6 2 2 10 11 5 9 9 11 17 22 25
10 11 12 14 14 13 24 26 21 12 12 11 11 12 12 14 21 22 13 14 13 10 10 11 12 12 9 6 0 2 7 7 6 3 4 5 4 7 2 8 10 21 23
10 10 11 11 17 13 21 26 22 9 12 9 11 11 17 18 22 23 13 11 11 11 11 12 9 6 4 6 11 8 4 5 5 1 5 8 2 5 1 3 4 6 10
Wind_Direction
1 344 355 326 338 341 309 290 193 194 207 205 202 206 206 207 160 156 169 215 204 171 168 172 168 168 166 160 160 161 162 162 160 156 155 155 152 150 143 136 136 137 133
360 349 339 331 339 336 314 309 246 186 205 208 211 207 207 231 161 188 167 191 195 172 176 174 172 173 174 169 165 167 168 168 166 162 159 162 154 150 144 139 139 139 139
3 348 346 341 343 325 320 317 285 294 249 217 214 218 201 219 175 155 156 188 189 171 176 180 175 174 180 179 170 173 172 173 169 167 164 166 154 151 149 145 147 145 146
7 354 348 347 341 333 351 330 344 326 300 295 263 235 221 197 189 186 170 164 189 178 180 176 178 174 179 181 180 180 178 175 174 170 168 167 163 160 154 154 154 148 151
8 1 355 345 343 341 343 357 331 318 231 228 284 269 253 221 176 183 174 183 171 191 179 179 179 179 174 183 184 187 186 182 179 175 174 176 170 164 159 160 162 155 157
358 359 1 349 346 345 346 340 346 330 309 211 264 274 248 285 201 176 191 183 178 186 180 183 181 184 169 184 186 189 192 191 186 182 181 184 175 170 169 167 168 166 165
354 356 359 354 346 344 347 346 339 337 316 314 199 240 244 233 266 221 227 184 192 181 172 190 185 183 181 184 184 191 194 196 192 189 187 188 182 174 175 170 168 174 170
345 349 356 354 348 342 345 353 348 347 304 351 274 169 251 262 223 210 230 195 200 185 183 187 191 187 185 191 192 188 197 200 195 192 192 192 184 177 175 173 171 173 178
343 348 357 350 351 347 343 345 351 346 328 322 313 284 187 229 291 185 216 189 197 193 188 185 190 190 187 191 188 192 191 198 196 196 194 193 188 185 181 184 184 177 179
351 351 349 340 348 347 343 336 345 336 330 323 320 329 295 233 211 212 238 218 184 200 206 188 192 193 190 195 191 196 189 191 192 195 197 194 196 190 187 192 199 201 181
349 344 348 337 338 347 341 336 331 337 327 312 313 306 315 264 233 233 274 218 208 230 203 195 187 192 192 192 192 197 186 192 192 190 195 196 196 197 184 189 195 207 196
345 349 343 343 335 340 339 338 331 322 322 310 301 306 290 291 244 212 217 243 214 209 206 195 196 190 189 191 193 192 190 190 193 192 192 196 198 203 182 188 193 209 209
340 339 341 338 337 332 333 333 335 329 321 316 310 296 295 288 302 266 251 239 223 194 183 199 195 187 186 193 195 190 191 193 194 193 192 194 197 198 193 186 192 203 214
333 327 331 332 326 328 332 341 333 331 325 311 312 304 288 279 272 278 235 224 246 204 172 180 196 190 194 191 196 185 196 196 193 193 192 194 194 192 191 190 192 198 211
328 331 327 331 332 332 339 344 333 330 325 322 318 307 297 297 277 294 216 215 289 202 200 191 161 200 196 192 192 185 199 199 195 195 195 194 194 192 191 192 194 196 199
336 335 337 335 333 338 351 346 333 329 325 323 314 320 312 300 298 294 220 174 138 287 196 184 210 187 203 200 190 184 196 187 194 192 195 193 194 195 194 194 197 197 196
339 345 340 343 337 339 2 345 332 334 325 327 329 331 320 319 309 275 291 208 222 177 350 304 280 207 204 206 203 196 185 189 192 195 193 196 194 196 197 196 196 200 199
343 345 338 350 342 346 355 346 334 334 326 328 337 334 335 326 324 338 328 217 197 174 188 256 283 289 212 210 214 192 186 193 191 197 197 195 195 197 197 196 199 201 200
342 338 337 350 345 347 350 343 334 331 323 327 340 338 336 337 340 334 322 317 174 179 197 213 256 241 265 230 212 204 183 192 194 184 196 196 196 200 201 200 200 203 203
342 339 333 337 348 338 348 344 343 334 324 338 340 344 342 341 338 338 334 316 280 181 192 217 220 217 224 247 245 210 192 184 190 180 202 201 200 204 204 204 205 207 207
339 330 336 339 350 348 355 349 343 335 337 340 337 339 338 339 342 333 325 307 316 246 193 210 209 213 226 197 202 212 211 190 196 173 176 195 199 207 217 218 221 215 209
343 342 346 349 351 348 2 356 349 336 344 342 339 343 340 338 340 337 325 295 271 282 240 201 224 221 222 211 208 216 216 165 190 180 172 196 189 204 212 208 214 217 215
343 348 350 356 355 357 1 357 351 341 348 341 340 341 344 344 342 346 338 331 301 247 234 290 227 214 216 192 199 211 240 227 207 183 173 197 180 211 207 215 206 207 209
350 351 352 356 356 357 359 357 354 346 351 340 339 343 348 347 349 348 344 348 346 4 9 338 266 279 261 231 207 235 252 267 303 221 187 209 167 213 203 217 201 204 208
357 356 358 355 355 0 358 357 356 345 347 342 348 353 355 350 349 356 356 354 346 350 334 336 306 288 307 258 148 111 243 240 243 259 214 177 208 212 198 212 213 200 202
360 357 354 351 352 352 354 355 357 345 351 344 355 356 0 1 356 0 3 356 356 340 340 347 342 342 334 245 212 220 216 218 201 28 241 208 155 144 290 242 225 195 209